[[{"header":{"parameterUnit":"m.s-1","parameterCategory":1,"la1":30.2991,"la2":30.254,"lo1":-89.0895,"lo2":-89.0444,"dy":0.0017,"dx":0.0017,"nx":28,"ny":28,"refTime":"2023-11-07T09:00:00:Z","depth":0,"parameterNumber":2,"parameterNumberName":"U-component_of_WINDS"},"data":[0,0,0,0,0,0,0,0,0,0,0,0,0,0,0,0,0,0,0,0,0,0,0,0,0,0,0,0,0,0,0,0,0,0,0,0,0,0,0,0,0,0,0,0,0,0,0,0,0,0,0,0,0,0,0,0,0,0,0.3103,0.3104,0,0.3225,0.3226,0.3228,0.3269,0.3268,0.3268,0.3267,0.3394,0.3397,0.3401,0,0,0,0,0,0,0,0,0,0,0,0,0,0.2907,0.2911,0.3103,0.3105,0.3106,0.3225,0.3226,0.3228,0.3269,0.3268,0.3268,0.3267,0.3392,0.3397,0.3402,0,0,0,0,0,0,0,0,0,0,0,0,0,0.3007,0.2912,0.3103,0.3141,0.3145,0.3224,0.3226,0.3228,0.3269,0.3268,0.3268,0.3267,0.3391,0.3397,0.3402,0.3453,0,0,0.342,0.3422,0,0,0,0,0,0,0,0,0.3001,0.3014,0.3134,0.3138,0.3144,0.3231,0.3204,0.3304,0.3269,0.3222,0.3267,0.3267,0.334,0.335,0.3375,0.3458,0.3464,0.342,0.3424,0.3426,0.3428,0,0,0,0,0,0,0,0.2994,0.3009,0.3151,0.3135,0.3141,0.3152,0.3166,0.3223,0.3284,0.3226,0.323,0.3243,0.3343,0.3369,0.3378,0.3466,0.342,0.3425,0.3429,0.3431,0.3597,0.3598,0,0,0,0,0,0,0.2981,0.3003,0.3147,0.3155,0.3069,0.3156,0.3171,0.3204,0.3283,0.3295,0.3244,0.3245,0.336,0.3371,0.3382,0.3447,0.3426,0.3432,0.3435,0.3596,0.3597,0.3598,0,0,0,0,0,0,0.2977,0.2993,0.3142,0.308,0.31,0.316,0.3197,0.3206,0.3233,0.3297,0.3308,0.3259,0.3359,0.3374,0.3435,0.3451,0.3434,0.3439,0.3595,0.3596,0.3598,0.3575,0,0,0,0,0,0,0.2971,0.2992,0.3011,0.308,0.3103,0.3192,0.3198,0.3209,0.3242,0.3245,0.3314,0.3325,0.336,0.3426,0.344,0.3459,0.3444,0.3594,0.3595,0.3597,0.3574,0.3575,0.3576,0,0,0,0,0,0.2964,0.3,0.3012,0.3029,0.3128,0.3193,0.3206,0.3245,0.3243,0.3264,0.3305,0.3323,0.3447,0.3432,0.3448,0.3469,0.3593,0.3595,0.3597,0.3574,0.3575,0.3576,0,0,0,0,0,0,0.2932,0.301,0.3024,0.3084,0.3131,0.32,0.3227,0.3245,0.3295,0.3295,0.3342,0.3358,0.3414,0.3448,0.3429,0.3522,0.3521,0.3527,0.3498,0.3499,0.35,0.3491,0.3449,0,0,0,0,0,0.2932,0.2977,0.3043,0.309,0.3113,0.3165,0.3195,0.3221,0.3273,0.3293,0.3339,0.3388,0.3439,0.3471,0.3521,0.3579,0.3595,0.3602,0.3603,0.3603,0.3608,0.3641,0.3644,0.3605,0.3605,0.3605,0,0,0.2933,0.2981,0.3007,0.3085,0.3125,0.3171,0.3182,0.3231,0.3266,0.3301,0.336,0.3395,0.3454,0.3513,0.3542,0.3543,0.3622,0.3606,0.3606,0.361,0.3643,0.3647,0.365,0.3607,0.3606,0.3606,0,0,0.2957,0.2998,0.3041,0.3081,0.3141,0.3176,0.3186,0.3252,0.3276,0.3336,0.3363,0.3406,0.3492,0.3532,0.3564,0.3603,0.3622,0.3619,0.3623,0.3655,0.3658,0.3661,0.3675,0.3679,0.3623,0.3623,0.3623,0,0.295,0.3021,0.3061,0.3108,0.3142,0.3175,0.3219,0.3256,0.3329,0.3352,0.3352,0.346,0.3502,0.3571,0.3581,0.3605,0.3619,0.3611,0.3654,0.3658,0.3661,0.3675,0.368,0.3622,0.3622,0.3622,0.3622,0,0.3009,0.3058,0.3085,0.3155,0.3192,0.3237,0.3284,0.3317,0.3339,0.3374,0.3435,0.3486,0.3547,0.3565,0.3588,0.3638,0.3637,0.3645,0.3645,0.3663,0.3677,0.3683,0.3621,0.3621,0.3621,0.3621,0,0,0.3018,0.3108,0.3118,0.315,0.3218,0.3257,0.3304,0.3362,0.3389,0.3439,0.3479,0.3551,0.3559,0.3595,0.3623,0.3651,0.3678,0.3656,0.3658,0.3658,0.3736,0.3729,0.3734,0.3691,0.3692,0.3693,0.3731,0,0.3051,0.3135,0.3173,0.3241,0.3286,0.3318,0.3359,0.3405,0.3439,0.3483,0.352,0.357,0.3577,0.3599,0.3628,0.3669,0.3694,0.3666,0.3729,0.3731,0.3713,0.3742,0.3735,0.3768,0.3737,0.3737,0.3738,0,0.3101,0.315,0.3222,0.3285,0.3305,0.3341,0.3398,0.3439,0.3493,0.3515,0.3555,0.3582,0.3632,0.3629,0.3699,0.3679,0.3707,0.3731,0.3733,0.3741,0.3735,0.375,0.378,0.3784,0.3747,0.3746,0.3746,0,0.3099,0.3183,0.3237,0.3264,0.3338,0.3363,0.3395,0.3448,0.3481,0.3531,0.3553,0.3608,0.3638,0.368,0.3721,0.3714,0.3787,0.3787,0.3808,0.3807,0.3822,0.382,0.3856,0.384,0.384,0.3839,0.3839,0,0.3133,0.3175,0.3238,0.3271,0.332,0.3363,0.341,0.3445,0.3491,0.3532,0.3563,0.3601,0.3652,0.3697,0.3729,0.3782,0.3796,0.3815,0.3823,0.3813,0.381,0.3832,0.383,0.3841,0.3841,0.384,0.384,0,0.3139,0.3183,0.3243,0.3309,0.3326,0.3359,0.3416,0.3449,0.3484,0.3535,0.355,0.3605,0.3658,0.3703,0.3774,0.3795,0.3851,0.386,0.3832,0.3837,0.3854,0.3852,0.3906,0.3915,0.3892,0.3892,0.3892,0,0.3157,0.3191,0.326,0.3289,0.3321,0.3367,0.3401,0.3445,0.3478,0.3541,0.3567,0.3623,0.367,0.3754,0.3801,0.3855,0.3866,0.3881,0.3874,0.3862,0.3866,0.3863,0.3867,0.3881,0.3881,0.3881,0.3881,0,0.3185,0.3205,0.3251,0.3305,0.3344,0.3389,0.3435,0.3457,0.3509,0.3546,0.36,0.3637,0.3708,0.3763,0.3822,0.3856,0.3877,0.3883,0.389,0.388,0.3862,0.3871,0.3834,0.3881,0.3881,0.3881,0.3881,0.3881,0.3198,0.3229,0.3282,0.3333,0.3372,0.3414,0.3449,0.3487,0.3534,0.3595,0.3618,0.3674,0.3727,0.3808,0.3842,0.3887,0.389,0.3901,0.3904,0.3905,0.3904,0.3855,0.3898,0.3898,0.3898,0.3898,0.3898,0,0.3227,0.3263,0.3309,0.3372,0.3412,0.3428,0.3479,0.3512,0.356,0.3608,0.3653,0.3716,0.3769,0.3819,0.3875,0.3901,0.3913,0.3915,0.3913,0.392,0.3898,0.3886,0.3905,0.3905,0.3905,0.3905,0.3905,0.3905,0.3247,0.33,0.3326,0.3399,0.3435,0.3489,0.3517,0.3556,0.3594,0.3663,0.3707,0.3739,0.3788,0.3847,0.3897,0.3911,0.393,0.3929,0.3945,0.3923,0.3922,0.3921,0.391,0.3933,0.3933,0.3964,0.3964,0.3964]},{"header":{"parameterUnit":"m.s-1","parameterCategory":1,"la1":30.2991,"la2":30.254,"lo1":-89.0895,"lo2":-89.0444,"dy":0.0017,"dx":0.0017,"nx":28,"ny":28,"refTime":"2023-11-07T09:00:00:Z","depth":0,"parameterNumber":3,"parameterNumberName":"V-component_of_WINDS"},"data":[0,0,0,0,0,0,0,0,0,0,0,0,0,0,0,0,0,0,0,0,0,0,0,0,0,0,0,0,0,0,0,0,0,0,0,0,0,0,0,0,0,0,0,0,0,0,0,0,0,0,0,0,0,0,0,0,0,0,2.3136,2.3136,0,2.3152,2.3152,2.3152,2.311,2.3109,2.3107,2.3106,2.3121,2.3122,2.3124,0,0,0,0,0,0,0,0,0,0,0,0,0,2.307,2.3072,2.3136,2.3136,2.3137,2.3151,2.3152,2.3152,2.311,2.3108,2.3107,2.3105,2.312,2.3122,2.3124,0,0,0,0,0,0,0,0,0,0,0,0,0,2.3094,2.3072,2.3136,2.3118,2.3116,2.3151,2.3152,2.3152,2.311,2.3108,2.3106,2.3105,2.3119,2.3122,2.3124,2.3178,0,0,2.3131,2.3132,0,0,0,0,0,0,0,0,2.3092,2.3096,2.312,2.3119,2.3117,2.3127,2.3134,2.3161,2.3111,2.3113,2.3106,2.3104,2.3124,2.3126,2.3133,2.3179,2.3179,2.3132,2.3133,2.3134,2.3135,0,0,0,0,0,0,0,2.3091,2.3095,2.3142,2.3121,2.3119,2.3108,2.3109,2.3139,2.3129,2.3112,2.3109,2.3112,2.3123,2.3131,2.3133,2.3179,2.3132,2.3134,2.3135,2.3136,2.3271,2.3273,0,0,0,0,0,0,2.3092,2.3094,2.3142,2.3143,2.31,2.3111,2.3112,2.3126,2.3129,2.3127,2.3113,2.311,2.3128,2.313,2.3133,2.3197,2.3134,2.3136,2.3138,2.3268,2.3271,2.3273,0,0,0,0,0,0,2.309,2.3096,2.3141,2.3118,2.3122,2.3114,2.313,2.3127,2.3135,2.3129,2.3127,2.3123,2.3126,2.313,2.3167,2.3197,2.3137,2.314,2.3266,2.3269,2.3272,2.3325,0,0,0,0,0,0,2.3089,2.3096,2.3117,2.3118,2.3124,2.3175,2.3131,2.3129,2.3139,2.3135,2.3138,2.3137,2.3125,2.3164,2.317,2.32,2.3141,2.3263,2.3267,2.3271,2.3321,2.333,2.3338,0,0,0,0,0,2.3086,2.3131,2.3118,2.3124,2.3149,2.3177,2.318,2.3166,2.3142,2.3162,2.3159,2.3137,2.3193,2.3168,2.3174,2.3205,2.3261,2.3266,2.3271,2.3317,2.3328,2.3338,0,0,0,0,0,0,2.3132,2.313,2.3116,2.3162,2.317,2.317,2.3195,2.3178,2.3192,2.3188,2.3169,2.317,2.3211,2.3212,2.3184,2.3258,2.3223,2.3229,2.3256,2.3267,2.3275,2.3274,2.3143,0,0,0,0,0,2.3147,2.317,2.3167,2.3208,2.3213,2.3204,2.3215,2.3204,2.3211,2.3214,2.3213,2.3221,2.324,2.3253,2.3271,2.3321,2.3321,2.3345,2.3353,2.336,2.3366,2.3393,2.3404,2.3289,2.3289,2.3289,0,0,2.3179,2.3181,2.3197,2.3217,2.3222,2.3246,2.3207,2.3233,2.3251,2.3218,2.3253,2.3253,2.326,2.3305,2.3324,2.3306,2.3398,2.3366,2.3372,2.3374,2.34,2.341,2.342,2.3292,2.3292,2.3291,0,0,2.325,2.3254,2.3289,2.3294,2.3302,2.3296,2.3304,2.3307,2.3306,2.3341,2.3317,2.3337,2.3371,2.3377,2.3385,2.3459,2.344,2.3465,2.351,2.3537,2.3546,2.3554,2.3581,2.3591,2.3471,2.3471,2.3471,0,2.3289,2.3324,2.3309,2.3338,2.3348,2.3319,2.3354,2.336,2.3374,2.3381,2.3361,2.3404,2.3406,2.3452,2.347,2.3477,2.3487,2.3465,2.3546,2.3553,2.3561,2.3587,2.3597,2.3474,2.3474,2.3474,2.3473,0,2.3372,2.3397,2.3424,2.3439,2.3452,2.3484,2.3473,2.3488,2.3475,2.3471,2.3508,2.351,2.3528,2.3538,2.3525,2.3582,2.3571,2.3549,2.3513,2.3575,2.3599,2.3609,2.3479,2.3478,2.3477,2.3476,0,0,2.3472,2.3478,2.3488,2.3494,2.3501,2.352,2.3551,2.3569,2.3583,2.3593,2.3619,2.3648,2.3628,2.3637,2.3625,2.3648,2.3708,2.3623,2.3623,2.3639,2.3772,2.3789,2.3801,2.3695,2.3696,2.3698,2.3771,0,2.3542,2.3596,2.3583,2.3636,2.3659,2.3633,2.3659,2.3667,2.3664,2.3683,2.3679,2.3701,2.3672,2.3677,2.3699,2.3696,2.3734,2.369,2.3719,2.372,2.3719,2.3813,2.3832,2.3901,2.3781,2.3782,2.3783,0,2.3632,2.3646,2.3702,2.3706,2.3715,2.374,2.3756,2.3775,2.3782,2.3778,2.3789,2.3772,2.3803,2.3767,2.3809,2.378,2.379,2.3791,2.3793,2.3796,2.3756,2.382,2.3923,2.3933,2.3798,2.3797,2.3795,0,2.37,2.3734,2.3771,2.3778,2.3783,2.3801,2.3804,2.381,2.3822,2.3836,2.3843,2.386,2.387,2.3883,2.3872,2.3847,2.3916,2.3879,2.3914,2.3915,2.3931,2.393,2.4038,2.3936,2.3936,2.3936,2.3936,0,2.3781,2.3816,2.3803,2.3826,2.3865,2.3849,2.3888,2.3888,2.3894,2.3917,2.3894,2.3916,2.3899,2.392,2.3911,2.3948,2.3952,2.395,2.3947,2.3952,2.3953,2.396,2.3955,2.3939,2.3938,2.3938,2.3937,0,2.3864,2.3856,2.3896,2.3898,2.39,2.3928,2.393,2.3952,2.3947,2.3977,2.3983,2.3975,2.3998,2.3988,2.4012,2.4006,2.4054,2.4044,2.4052,2.405,2.4086,2.4083,2.4203,2.4218,2.4106,2.4107,2.4108,0,2.3917,2.3943,2.3949,2.3963,2.3968,2.3991,2.4003,2.3989,2.4003,2.4014,2.4035,2.4056,2.4072,2.411,2.4107,2.4126,2.4117,2.4158,2.4119,2.4124,2.4119,2.4118,2.4121,2.4166,2.4167,2.4168,2.4169,0,2.4011,2.4006,2.4025,2.4043,2.4059,2.4072,2.4084,2.4096,2.4083,2.4099,2.4123,2.4136,2.4161,2.4183,2.4199,2.4202,2.4184,2.4181,2.419,2.4196,2.42,2.4199,2.4074,2.4178,2.4177,2.4177,2.4176,2.4176,2.4081,2.4104,2.4112,2.4134,2.4141,2.4153,2.4174,2.4172,2.4192,2.4212,2.4202,2.423,2.4237,2.4258,2.4263,2.4285,2.4269,2.4282,2.4285,2.4289,2.4295,2.4196,2.4287,2.4287,2.4287,2.4287,2.4286,0,2.4175,2.4179,2.4199,2.4217,2.4234,2.4216,2.4228,2.4244,2.4269,2.4277,2.4294,2.4322,2.4343,2.4342,2.4361,2.4379,2.4371,2.4385,2.4384,2.4385,2.4307,2.4298,2.4391,2.4391,2.4391,2.4391,2.4391,2.4391,2.4226,2.4264,2.426,2.4302,2.4305,2.4333,2.4342,2.4352,2.4359,2.4392,2.441,2.4409,2.4414,2.4433,2.4452,2.4451,2.446,2.4477,2.4473,2.44,2.439,2.438,2.4371,2.4479,2.4479,2.4549,2.455,2.455]}]]